Theta_e
328 328 328 327 327 327 328 328 327 327 326 325 325 324 321 320 316 314 314 317 318 321 325 321 325 329 330 329 329 328 327 325 324 325 326 327 327 319 316 315 318 318 316 316 313 314 315 316 318 321 324 323 323 322 319 318 317 316 318 322 324 320 316 315 314 317 321 322 321 316 314 314 314 312
327 327 327 327 326 327 328 328 328 327 327 326 325 325 324 323 318 317 314 315 319 320 323 324 323 327 329 330 329 329 328 323 325 326 326 327 327 318 314 314 314 314 314 313 309 310 312 315 319 323 323 321 321 320 318 316 316 317 320 323 324 319 317 317 318 321 322 318 313 311 311 311 311 312
327 326 326 327 326 327 327 327 328 328 327 326 326 325 325 324 322 320 318 314 319 323 321 324 326 327 328 330 329 329 329 327 325 326 326 327 322 318 317 314 313 314 313 312 311 313 312 312 315 319 321 320 320 318 319 320 319 321 321 320 318 318 317 317 318 322 320 318 315 314 313 312 312 312
327 326 326 326 326 327 327 327 327 327 327 327 326 326 325 324 324 322 320 317 316 321 323 324 326 327 327 329 328 328 328 329 322 328 328 328 321 322 322 313 313 313 313 312 314 319 316 313 315 319 321 321 320 320 321 321 322 320 317 314 315 316 315 316 318 321 319 317 314 311 311 311 311 312
327 326 326 326 327 327 327 327 327 327 327 327 326 326 325 324 324 322 320 317 317 318 320 324 325 327 328 326 328 327 327 327 326 325 329 329 327 324 323 320 312 312 312 310 310 312 310 311 318 320 322 322 322 318 317 318 315 316 315 312 311 311 314 316 316 317 317 314 312 309 310 311 312 311
327 326 326 326 327 328 327 327 327 327 327 326 325 324 324 323 323 324 321 319 318 316 317 320 324 326 328 324 328 327 326 326 323 326 327 328 327 324 324 321 318 311 312 310 309 310 310 310 313 314 313 314 314 313 312 313 312 314 310 306 308 311 314 316 314 312 314 312 310 309 310 311 311 311
326 325 325 325 327 327 327 327 327 328 327 327 325 324 325 323 323 324 323 320 317 317 317 321 322 324 326 325 326 327 328 327 325 325 326 326 326 325 324 322 320 310 310 309 308 309 309 309 311 311 311 311 310 309 309 310 309 308 307 305 307 309 310 311 309 309 312 312 310 310 310 310 311 312
322 324 324 324 326 326 326 326 326 327 327 326 325 324 325 324 323 323 323 323 320 318 317 318 321 323 324 325 328 328 328 326 323 325 326 326 324 323 323 321 318 311 309 308 308 309 309 309 310 310 310 310 309 309 309 309 308 306 306 305 307 307 307 307 305 305 307 309 311 310 310 310 312 312
317 321 323 325 325 326 325 325 325 326 325 326 325 324 325 324 324 323 323 323 322 319 318 318 320 323 324 326 327 327 323 323 323 325 323 323 322 321 322 320 319 310 308 308 309 309 309 309 309 309 309 309 308 308 308 307 307 306 305 305 305 306 305 305 304 304 304 304 306 311 311 309 312 312
314 317 321 325 325 325 325 324 325 326 325 326 325 325 325 324 323 322 322 322 322 320 319 319 318 321 321 322 323 325 323 321 319 319 321 322 322 320 319 320 318 313 312 312 312 309 309 309 309 308 308 308 307 307 307 307 306 306 305 305 305 305 304 304 303 303 303 304 305 307 309 309 313 315
312 315 320 324 325 325 325 325 325 325 325 325 325 325 324 324 322 321 321 321 321 320 319 319 319 319 321 322 320 322 323 323 321 317 317 317 320 320 319 317 316 314 313 312 310 312 312 311 311 308 308 308 307 307 306 306 306 305 304 303 303 303 303 303 303 303 302 302 302 302 302 304 310 313
312 315 319 323 325 326 326 325 325 325 324 325 324 325 325 323 321 321 321 320 320 319 319 318 318 319 319 319 321 323 321 319 318 319 317 315 316 317 319 317 313 314 314 313 312 311 312 310 309 307 307 307 306 306 306 307 307 305 303 302 302 302 302 302 302 301 301 300 299 298 298 299 302 309
312 315 319 323 325 326 325 318 316 317 318 322 323 324 324 322 321 320 320 320 319 318 317 317 318 318 318 318 318 317 317 316 315 318 318 317 317 318 316 317 318 315 314 313 313 313 314 311 310 311 311 309 308 308 308 307 306 304 302 301 301 301 301 301 301 300 300 299 298 297 297 298 298 297
313 316 318 321 322 318 317 315 310 307 307 310 317 322 323 321 320 320 319 319 319 319 317 317 317 316 316 316 317 317 318 319 318 317 317 314 316 316 314 313 315 316 316 312 311 312 314 312 310 311 309 310 311 310 310 309 307 303 301 301 301 301 300 300 299 299 299 298 298 297 297 297 296 296
307 309 310 313 317 319 319 319 309 306 304 303 302 304 309 315 322 320 319 319 319 318 318 318 318 317 316 316 318 318 318 319 317 317 316 315 314 313 310 308 310 316 315 312 310 309 313 312 308 309 308 309 310 310 310 304 303 302 301 301 300 300 299 299 298 298 298 298 297 297 296 297 297 295
304 304 305 308 311 315 317 318 318 314 309 305 302 300 300 300 302 307 318 319 318 318 317 317 318 317 317 317 316 317 317 317 317 317 316 315 314 312 312 311 308 313 316 312 309 307 311 313 309 307 307 309 310 309 305 302 301 301 301 300 299 299 299 298 298 298 298 297 297 296 296 296 295 294
302 302 304 305 308 311 313 313 310 312 315 309 306 303 300 300 300 298 298 303 319 321 319 318 318 318 318 317 316 318 318 317 316 316 315 315 314 314 312 312 309 311 315 312 308 306 309 310 307 306 307 308 308 305 302 301 301 300 300 299 299 298 298 298 298 297 297 296 296 296 296 295 294 294
301 301 301 302 305 306 307 306 303 306 312 315 317 317 316 315 313 304 299 298 298 305 318 320 318 320 321 319 318 318 317 317 316 316 315 315 314 312 312 312 312 313 316 312 308 305 307 309 307 304 305 306 305 306 303 300 299 299 299 298 298 298 298 298 297 297 296 296 296 296 296 295 294 294
300 300 300 300 301 302 302 300 298 304 310 313 313 313 311 310 309 307 305 305 307 310 314 318 320 321 322 322 321 319 319 319 319 319 317 316 315 314 313 312 313 313 315 313 310 303 305 308 304 302 303 304 304 303 299 299 299 298 298 298 298 298 297 297 297 297 297 296 296 296 295 294 293 293
300 300 300 299 299 299 299 297 294 298 307 309 309 307 307 306 305 305 304 299 297 300 305 309 313 317 321 314 319 317 319 319 318 315 315 314 312 311 310 308 310 310 313 313 309 303 303 305 301 298 301 302 299 301 301 298 299 299 298 298 297 297 297 297 297 297 296 296 296 295 294 293 293 293
299 299 299 298 298 298 297 295 293 295 301 305 305 304 303 303 303 302 304 301 299 297 296 295 295 295 298 302 304 303 306 312 314 315 313 310 311 309 308 307 308 309 310 311 309 305 301 301 299 297 299 299 298 298 299 300 299 299 298 298 297 297 297 297 297 296 296 296 295 295 294 294 293 294
299 299 299 300 297 296 296 292 293 294 301 302 302 302 301 300 300 300 302 303 303 299 298 297 297 297 298 298 299 301 303 303 309 315 311 311 311 308 308 306 308 308 309 307 309 304 300 300 299 296 297 297 298 298 299 299 299 298 298 297 297 297 297 296 296 296 296 296 295 295 294 294 295 297
298 298 298 297 295 295 294 292 292 293 299 300 300 300 300 299 298 299 300 300 300 300 300 301 301 300 301 304 306 306 300 302 309 316 315 312 311 308 306 306 305 303 303 306 309 300 297 298 299 299 297 293 296 298 298 298 299 300 299 299 298 296 296 296 296 296 296 296 295 295 294 294 295 297
296 297 297 296 292 291 292 292 292 292 294 298 299 299 298 297 297 300 299 299 300 299 299 298 299 299 300 301 301 302 303 305 310 312 315 313 312 309 307 307 307 305 303 305 307 301 299 300 298 302 301 293 291 295 298 297 298 299 299 299 298 296 296 296 295 295 295 295 294 294 294 294 295 296
294 294 295 296 293 291 291 292 292 292 293 295 297 297 296 296 297 298 299 299 298 298 298 298 298 298 298 298 299 299 299 300 301 303 305 311 310 310 307 307 307 304 303 305 302 302 298 299 297 298 297 298 295 294 296 297 298 299 300 299 297 297 297 297 296 296 295 294 294 293 293 294 294 297
293 294 294 295 293 291 292 291 292 292 293 293 297 294 292 292 293 299 299 299 299 298 297 296 296 296 296 296 296 297 298 298 299 301 301 303 307 307 307 308 307 302 302 302 300 303 299 297 297 296 295 294 294 295 293 295 296 298 299 299 298 297 297 296 296 296 296 296 296 295 295 294 294 294
293 294 294 295 293 291 292 292 292 292 292 294 294 292 292 293 293 296 298 297 297 296 296 295 294 294 295 295 295 295 296 297 298 298 299 300 301 301 301 302 305 306 304 303 305 304 302 298 298 296 295 295 293 294 294 293 293 296 296 296 296 296 296 297 296 296 296 296 296 294 293 293 293 293
293 293 293 293 291 292 292 292 292 292 292 293 292 292 293 294 295 298 297 296 296 294 294 294 293 293 294 295 295 295 296 296 297 298 298 299 299 299 300 301 301 303 304 304 304 304 302 299 298 298 297 295 293 292 292 294 295 295 293 294 295 295 295 296 296 296 295 296 296 296 296 295 295 295
293 291 291 291 291 291 292 292 293 293 293 291 292 292 293 296 297 297 297 296 295 293 293 293 293 293 294 294 295 296 297 297 297 297 297 298 299 299 299 298 298 300 301 302 302 303 301 300 298 298 298 297 295 295 294 293 294 293 294 293 293 293 293 294 295 294 293 294 296 296 296 295 294 295
291 291 291 291 292 292 293 295 294 294 293 292 292 293 295 296 296 296 296 295 294 293 293 293 292 293 294 294 295 296 296 296 295 296 295 296 296 297 297 296 296 297 298 300 302 302 301 300 299 299 298 297 297 295 295 293 293 293 293 293 293 292 293 293 292 293 293 293 293 293 292 294 296 296
293 293 292 291 291 291 291 291 292 292 292 293 294 295 295 295 296 295 295 294 294 293 293 293 293 293 294 294 294 294 294 294 294 295 295 294 294 295 295 294 293 294 295 296 298 300 301 300 300 299 297 296 296 296 295 294 292 292 293 293 293 291 290 291 292 292 292 291 291 291 292 293 294 293
293 292 291 291 292 292 292 292 293 293 293 292 292 293 293 294 293 294 294 294 294 294 294 294 294 293 293 292 292 293 293 293 294 294 294 293 293 294 294 292 291 292 293 294 295 295 294 298 299 299 298 297 295 295 296 294 293 293 292 292 291 291 292 292 291 291 292 292 292 291 290 292 293 293
291 291 290 289 289 289 288 288 289 290 290 290 292 291 291 292 292 292 291 291 291 292 292 291 291 291 292 291 292 292 292 292 293 294 293 293 293 293 292 290 290 290 290 291 292 293 294 294 294 295 296 297 297 296 294 291 291 292 291 291 291 290 291 292 292 291 291 292 291 291 291 291 291 292
289 288 287 287 287 287 287 287 286 287 288 288 289 289 289 289 290 291 290 290 290 289 289 289 289 289 289 290 291 291 291 292 292 292 291 292 292 290 289 288 288 289 290 290 291 292 293 294 294 294 294 292 294 295 296 293 290 291 291 291 291 289 290 290 290 291 291 292 292 291 291 290 291 291
287 286 286 286 286 287 287 286 286 286 286 286 287 288 289 289 288 288 289 289 288 288 288 288 288 288 289 289 289 289 289 290 291 291 291 291 291 290 289 287 287 287 288 289 291 292 293 293 293 292 292 292 291 292 293 294 291 290 291 290 291 290 289 289 290 290 291 291 293 290 289 290 291 291
286 286 286 286 286 286 286 286 286 286 287 287 287 287 287 287 287 287 287 288 289 288 288 288 288 288 288 288 288 289 288 288 289 289 289 289 289 289 289 288 288 288 289 290 290 292 293 292 292 289 287 287 287 286 287 292 292 292 290 287 289 289 288 288 289 289 290 290 292 292 289 288 290 291
286 286 287 287 287 287 286 287 287 287 287 287 287 287 287 286 287 288 287 287 288 287 288 287 287 288 288 288 288 288 288 288 288 288 288 289 289 289 288 287 287 288 288 289 291 291 292 291 291 289 287 286 285 284 285 287 289 292 292 288 287 288 288 288 289 288 288 289 290 291 290 289 289 291
286 287 287 287 287 287 287 287 287 286 287 287 287 287 287 287 287 287 288 288 287 287 287 287 287 287 288 288 288 288 287 288 288 287 287 288 288 287 288 287 287 288 288 288 289 290 291 291 290 289 288 286 284 284 284 286 287 288 290 291 287 286 288 288 287 287 287 288 289 288 290 290 289 290
286 286 286 286 286 287 286 286 286 286 286 286 286 286 287 287 287 287 286 286 286 286 287 287 287 286 287 287 287 288 288 288 287 287 287 287 288 288 288 288 287 288 288 288 289 289 290 290 290 289 289 287 286 286 287 286 286 287 288 291 290 287 288 288 287 288 288 287 286 287 287 287 288 286
286 286 285 285 286 286 287 286 286 286 286 285 286 285 285 285 286 286 286 285 286 286 286 285 286 286 286 287 287 288 287 287 287 287 287 287 287 287 287 287 287 287 287 287 287 288 288 288 289 289 289 289 288 288 288 287 287 287 288 288 289 289 288 287 287 287 286 287 288 287 286 287 286 287
285 286 285 285 285 285 285 286 286 286 286 286 286 286 285 285 285 285 285 285 284 285 285 285 285 285 285 286 286 287 287 286 287 286 287 287 286 286 286 286 287 287 287 286 287 287 287 287 286 285 288 288 288 289 288 287 286 287 287 288 288 288 288 289 290 288 287 287 288 287 285 285 284 284
285 286 286 285 285 285 285 285 285 285 285 285 285 285 286 285 285 285 284 283 284 284 285 285 285 285 284 285 286 286 286 286 286 286 286 287 287 286 286 287 287 287 287 286 286 286 287 287 288 289 290 288 288 287 285 286 285 286 286 286 286 287 289 288 288 288 290 287 286 284 283 283 284 285
285 286 286 285 285 285 285 285 285 284 284 285 284 284 285 285 285 284 284 284 284 284 284 285 284 285 285 285 285 285 286 285 285 286 285 285 286 287 286 285 285 286 285 284 285 286 286 288 289 289 289 288 287 288 286 286 286 286 285 286 286 286 286 288 289 288 288 287 287 287 289 287 284 283
286 286 286 286 286 285 285 285 285 284 284 283 283 284 283 284 284 283 283 283 283 283 283 284 284 284 284 284 285 285 284 284 285 286 285 285 285 285 285 284 285 285 286 286 286 287 287 288 287 289 289 287 287 287 286 285 286 286 287 285 284 285 286 286 286 286 286 286 286 286 287 287 287 288
285 285 286 286 286 286 285 285 285 285 284 284 284 284 284 285 284 285 284 283 283 282 283 283 284 283 284 284 286 285 284 284 284 283 284 285 285 285 284 285 285 285 285 286 287 286 287 287 287 287 286 285 285 287 286 286 286 285 285 284 284 284 284 285 287 287 287 287 286 285 286 286 287 286
Wind_Speed
7 6 7 6 7 8 8 8 8 9 9 8 9 10 10 10 9 8 8 8 8 6 8 7 8 10 10 9 9 10 11 11 14 11 9 11 8 15 18 19 18 16 16 16 16 15 15 17 15 14 16 14 16 16 16 16 15 14 12 15 11 9 12 12 13 13 15 15 12 13 14 13 12 12
4 6 6 7 7 6 7 8 8 7 7 5 7 8 9 9 10 9 9 7 7 6 8 8 6 9 11 10 9 10 11 16 15 10 10 9 9 16 19 18 18 17 16 16 15 16 15 16 15 14 14 14 15 17 17 16 15 14 16 16 9 13 14 13 13 15 11 12 13 12 12 12 11 10
6 7 8 7 8 7 8 8 8 8 8 8 8 9 9 10 11 11 8 8 3 5 7 8 7 8 12 10 10 9 11 13 15 13 11 11 14 17 16 19 18 17 17 16 15 15 15 17 16 16 15 17 17 16 17 14 13 16 18 12 13 15 15 14 13 12 14 14 14 11 10 10 11 11
5 5 8 8 7 6 7 8 8 8 8 8 8 8 9 9 11 11 10 11 6 5 8 7 8 10 9 10 10 10 10 9 16 13 12 12 14 12 9 17 19 18 17 16 15 16 16 16 17 15 15 17 18 16 15 16 17 17 15 14 16 16 16 14 12 15 15 14 13 12 11 11 12 11
6 7 9 9 8 8 9 8 8 7 8 8 8 8 8 9 9 10 10 10 9 3 2 4 7 7 9 9 11 12 10 10 10 12 12 13 11 10 10 12 18 18 17 16 16 15 16 17 16 15 18 19 20 18 19 19 18 17 14 16 16 16 16 14 13 14 14 13 13 12 12 11 10 9
6 8 9 10 9 8 8 8 9 8 9 8 9 7 6 7 9 10 9 9 8 9 3 3 4 6 9 10 12 13 12 10 10 14 10 11 11 9 10 9 13 19 18 17 17 15 16 17 16 17 18 20 20 20 20 19 18 15 15 16 16 16 16 14 14 13 13 13 13 13 11 10 9 9
8 9 9 10 9 6 8 9 9 8 9 8 8 9 8 8 9 8 9 8 9 9 6 5 5 7 9 11 12 15 10 10 9 13 14 13 11 10 9 11 8 17 17 18 17 16 17 17 17 17 15 16 14 13 15 18 17 15 16 15 15 16 15 15 14 14 13 13 12 12 11 10 10 9
10 11 10 10 10 8 8 7 7 7 8 9 8 9 8 8 9 9 9 10 8 7 8 5 8 7 8 8 8 10 10 7 8 11 11 7 9 11 11 8 9 13 18 18 17 17 17 18 17 17 18 18 19 19 17 17 16 16 16 16 15 15 15 15 15 14 13 13 12 12 11 10 9 10
10 11 11 10 10 8 7 9 8 8 10 9 8 9 8 8 8 8 9 10 9 7 9 6 6 6 7 7 7 7 8 7 9 6 7 9 8 8 9 9 8 13 17 16 17 17 17 18 18 18 18 18 20 20 18 17 17 16 16 15 14 14 14 15 14 13 13 12 11 11 9 9 9 10
9 10 12 11 11 10 8 9 9 9 10 9 9 9 8 7 8 9 10 10 10 10 9 7 6 6 7 6 7 8 11 10 8 5 7 8 8 8 6 8 6 6 7 7 10 13 14 17 19 19 19 19 19 19 18 17 17 16 16 16 14 14 14 14 13 12 12 11 10 9 9 8 7 9
10 11 11 10 10 9 9 9 9 9 9 8 9 9 9 9 8 8 8 9 10 10 10 8 7 7 7 8 8 6 10 10 9 10 7 8 6 9 11 8 6 7 8 11 15 12 11 14 13 18 20 20 19 18 18 17 17 16 16 16 15 14 13 13 13 12 11 10 9 9 8 6 5 6
10 10 10 10 10 9 8 8 8 8 8 8 9 8 9 9 8 9 8 8 9 9 9 9 8 8 7 6 4 5 6 6 5 9 10 11 10 11 9 9 9 6 7 9 8 10 12 13 15 17 18 20 19 19 17 18 16 17 16 15 15 14 13 13 12 11 10 9 9 8 7 7 6 5
10 10 10 10 8 9 13 14 12 11 11 10 10 8 8 8 7 8 8 8 8 8 8 8 7 7 7 8 8 9 11 10 11 11 10 10 10 9 9 7 7 7 9 8 8 9 10 10 10 10 9 11 18 16 16 13 16 16 15 15 15 14 14 12 11 10 10 10 10 9 8 8 7 7
8 9 9 9 14 12 12 12 13 14 14 13 11 10 7 7 7 7 8 8 8 8 10 10 9 9 9 9 10 9 9 9 6 7 7 9 9 9 7 7 4 8 8 9 10 8 7 10 9 9 9 8 10 7 8 8 10 14 16 15 15 14 13 13 12 12 11 11 10 10 9 9 8 8
9 9 10 8 11 11 10 10 12 12 13 12 13 14 14 11 9 8 9 8 7 7 8 8 8 9 10 10 10 11 11 10 11 12 11 10 10 11 13 11 6 7 11 8 8 7 7 11 11 8 9 9 7 7 8 14 15 16 16 15 14 14 13 13 13 12 12 12 9 8 9 9 9 8
9 11 10 9 8 9 12 11 9 10 12 12 12 12 13 14 14 13 10 8 7 8 8 8 9 9 9 8 9 8 9 9 9 10 11 10 12 12 11 10 10 7 12 11 9 8 6 8 11 9 8 9 8 8 13 17 15 15 16 15 14 14 14 14 13 13 12 12 11 11 10 9 9 9
10 10 9 9 8 7 16 11 10 10 10 10 10 9 10 12 12 14 16 14 11 7 9 9 9 10 9 9 10 11 12 11 12 10 10 10 11 12 13 9 9 12 11 10 8 9 8 8 10 10 8 8 8 9 13 16 16 16 16 15 15 15 15 14 14 13 12 12 12 12 12 12 12 12
11 11 10 11 11 11 11 11 11 9 9 10 8 7 7 7 9 9 10 13 15 12 8 9 11 9 9 10 9 11 11 13 13 12 13 13 13 12 12 11 12 12 13 14 10 8 9 8 11 11 8 7 8 8 12 16 16 16 16 16 16 15 15 14 13 13 12 12 13 13 13 13 13 13
11 11 9 9 9 11 11 12 13 9 10 9 7 7 8 7 8 9 9 8 6 5 6 8 8 8 8 10 7 9 9 13 13 14 15 17 14 10 7 8 9 10 8 12 11 7 8 7 10 9 10 8 8 6 10 14 16 17 17 16 16 15 15 14 13 13 13 13 14 14 14 14 14 13
11 11 11 9 11 12 11 17 19 17 10 8 8 8 8 8 8 9 9 8 6 5 4 5 7 8 7 8 8 9 10 9 6 6 7 7 8 11 11 10 10 10 10 12 11 9 8 5 11 6 6 9 8 7 6 11 16 17 17 16 16 15 14 14 13 13 13 13 14 13 13 14 14 13
10 12 14 12 11 11 12 17 19 18 14 9 10 9 9 8 9 10 10 11 13 13 12 13 12 14 16 10 9 12 16 11 10 9 9 10 12 12 10 8 10 11 10 6 10 12 11 7 9 8 5 8 8 7 7 7 11 16 16 16 15 15 14 14 13 13 13 13 13 13 14 14 14 14
9 14 25 20 12 12 12 17 18 17 12 11 11 10 10 11 11 11 11 9 10 13 13 15 14 16 16 17 10 12 15 13 13 11 11 10 11 12 13 13 11 9 8 8 13 11 10 8 10 11 8 11 7 7 8 8 8 12 12 14 14 14 13 13 14 13 13 13 12 10 13 13 12 7
10 11 14 22 18 13 14 18 17 18 14 12 12 11 11 11 12 11 11 11 11 13 14 13 13 14 15 12 10 8 9 18 16 13 11 12 14 13 10 9 8 6 3 7 13 14 7 10 7 13 8 5 5 5 6 8 7 5 6 7 8 11 12 13 13 13 12 12 11 10 11 11 9 5
10 10 10 14 21 19 19 18 20 19 17 14 11 11 11 11 12 8 10 12 10 12 11 11 10 12 11 12 11 11 11 9 6 3 6 13 13 13 13 15 15 14 8 7 11 15 8 11 7 2 9 12 8 4 7 7 6 6 6 7 7 8 11 12 10 11 11 10 10 10 9 8 7 5
9 9 10 10 18 19 20 19 19 19 19 16 14 14 12 10 8 9 11 12 14 12 13 13 13 12 11 11 11 11 11 10 9 8 6 1 1 6 13 12 11 8 7 10 14 16 9 9 9 7 8 6 8 10 6 8 6 5 5 7 8 6 7 6 5 5 6 9 10 9 8 8 6 4
9 10 9 10 14 17 19 20 20 20 19 19 11 13 14 15 16 12 9 10 11 12 12 12 13 13 13 13 13 12 11 11 9 9 8 6 3 5 1 6 13 13 11 8 16 15 14 7 10 10 7 12 7 9 11 6 5 5 5 6 7 6 6 6 4 4 3 3 3 4 4 7 7 7
9 9 10 11 17 17 19 20 21 21 21 16 14 18 17 16 16 13 10 11 12 12 13 14 14 13 12 13 13 13 12 11 11 9 9 8 8 8 8 9 4 9 13 11 11 16 15 9 8 13 12 12 15 8 9 10 7 5 7 6 6 5 5 5 4 4 2 2 3 7 7 6 7 6
9 9 9 10 17 17 17 18 19 20 18 15 18 18 18 16 14 11 11 11 11 12 13 13 13 12 11 11 12 11 10 10 10 10 11 11 11 11 11 12 12 11 10 10 11 11 13 12 8 7 15 16 16 15 11 5 7 7 8 5 6 5 3 3 4 4 3 3 3 3 4 3 2 3
9 11 14 16 17 17 16 17 17 15 17 19 18 19 18 16 11 11 10 10 11 13 12 11 10 10 11 10 9 9 9 11 12 12 11 10 10 12 15 14 13 11 10 9 9 9 11 13 12 11 9 10 13 9 9 9 7 7 8 9 6 2 2 2 4 4 3 3 2 2 2 3 3 2
15 16 15 17 16 16 15 13 12 12 13 17 18 19 17 12 11 10 10 11 12 11 11 10 10 9 8 8 8 9 11 13 12 10 11 11 11 9 12 15 14 13 12 11 11 10 10 11 13 13 12 9 12 13 12 13 10 8 8 7 5 3 2 3 4 4 4 4 3 3 2 2 3 3
9 11 11 10 12 12 16 15 13 13 13 12 11 11 11 11 11 11 11 11 11 10 10 10 9 9 8 8 12 12 12 12 11 9 10 11 10 9 10 15 14 14 13 14 12 11 10 10 10 14 15 11 10 12 11 10 11 10 7 4 5 5 2 3 3 4 4 4 3 3 3 3 3 2
7 8 10 12 10 11 11 10 9 9 9 10 10 8 8 8 9 10 12 11 10 10 9 9 9 10 11 12 10 10 11 11 11 10 10 11 12 8 7 16 12 12 13 12 12 13 13 10 9 9 14 14 14 11 11 10 11 9 7 5 6 5 3 4 5 3 4 4 4 4 3 3 3 2
9 10 11 10 12 11 11 11 9 9 9 10 9 10 8 7 7 8 9 9 9 7 8 10 9 9 10 11 10 11 12 12 11 10 11 11 11 11 15 17 13 12 12 12 11 11 12 12 11 12 10 8 10 13 11 9 6 6 7 7 6 4 3 2 4 5 3 5 4 4 4 3 3 2
8 9 10 10 9 10 10 10 10 10 10 9 9 9 9 9 8 8 7 8 6 6 7 7 8 8 8 9 9 10 10 10 11 12 12 11 12 14 13 14 13 11 11 11 10 10 10 11 12 12 13 13 12 9 8 11 8 7 6 6 6 4 2 2 2 3 3 3 5 5 4 4 3 2
10 9 9 9 9 9 9 9 9 8 8 7 7 8 8 8 9 8 8 7 5 6 5 6 6 6 8 8 8 9 9 9 9 9 9 10 11 11 11 11 11 10 10 10 9 8 8 9 10 11 11 11 11 11 14 8 9 7 6 5 3 5 3 1 2 2 3 3 4 6 4 3 4 2
9 6 6 6 8 8 8 7 8 8 9 9 8 8 8 8 7 7 7 6 6 6 6 5 5 5 6 7 7 7 7 7 8 8 9 9 10 10 10 10 9 9 9 8 8 7 7 8 9 10 10 9 9 8 4 10 7 6 8 4 4 4 3 3 3 3 4 4 2 5 3 3 3 2
8 7 8 8 8 8 8 8 8 8 8 8 8 8 8 7 7 7 5 5 7 6 6 5 5 4 4 5 5 6 6 6 7 7 8 8 8 8 9 9 8 8 9 7 6 8 8 9 8 9 10 9 9 8 3 2 7 6 8 7 2 3 5 5 4 5 3 2 3 3 4 3 2 2
7 7 8 8 8 8 7 8 8 8 9 8 9 9 8 7 7 7 7 8 7 5 6 6 5 5 4 4 4 4 5 5 6 6 6 7 7 7 7 7 6 6 6 6 5 5 6 8 8 8 8 9 8 6 4 1 2 3 6 5 6 2 3 4 4 3 3 3 4 1 2 3 2 2
7 7 7 7 7 7 8 8 6 6 7 7 7 7 8 8 8 8 7 7 7 6 6 6 5 4 5 4 3 3 4 4 5 4 5 5 5 6 5 6 6 6 7 7 6 6 6 7 7 7 9 8 7 7 8 6 3 1 4 6 5 6 1 4 4 3 5 3 3 3 4 2 1 1
6 6 6 6 7 6 7 7 7 6 7 6 6 6 6 6 5 6 6 6 6 6 6 5 5 5 5 4 3 3 5 5 4 3 4 3 3 4 4 3 4 4 5 5 5 5 6 5 5 4 4 4 4 4 4 5 3 1 2 5 8 2 4 4 3 4 3 3 4 3 2 1 1 2
7 8 7 5 5 5 6 6 6 6 7 6 7 6 6 6 6 5 4 5 5 6 6 6 5 5 5 4 4 4 5 4 4 4 3 4 4 4 4 4 3 3 5 4 4 5 5 2 1 4 8 6 6 6 6 5 3 2 2 1 7 7 5 3 6 5 3 2 3 3 2 2 1 0
6 6 6 5 5 5 4 6 5 6 6 5 5 5 7 5 5 6 6 6 7 7 5 5 5 4 4 4 3 4 5 3 3 3 3 3 4 4 5 4 4 2 4 3 2 2 1 2 3 5 6 6 6 5 3 5 5 3 2 1 1 4 6 5 5 3 8 7 5 3 2 0 0 1
6 6 6 6 5 5 5 5 5 5 4 4 5 5 5 6 6 8 6 6 5 5 5 4 4 4 3 3 3 3 3 3 3 4 4 4 4 4 4 4 4 4 5 4 2 2 2 2 3 3 3 3 2 2 5 3 3 3 2 2 2 1 2 6 7 9 9 8 5 2 1 2 3 2
5 5 5 5 6 6 5 5 5 4 4 3 3 4 5 5 6 5 4 4 5 4 4 4 4 5 4 3 3 4 3 2 2 4 4 4 4 3 3 3 4 4 3 4 4 3 2 3 2 1 3 2 1 3 4 3 2 1 2 1 1 2 2 2 2 5 6 9 10 7 3 2 1 1
4 4 5 5 5 5 4 4 4 5 4 3 4 4 4 4 5 5 6 5 5 5 5 4 4 4 4 4 4 4 2 2 3 3 2 3 3 3 3 3 3 3 3 2 4 3 2 2 1 2 3 1 1 2 3 2 3 2 1 2 3 1 1 1 3 3 2 1 8 10 2 3 3 4
Wind_Direction
251 254 249 256 266 269 267 256 249 238 234 229 229 221 222 225 241 243 226 218 216 203 196 192 209 202 196 195 189 187 196 200 197 189 195 200 192 197 200 201 200 191 192 188 186 185 184 188 185 184 187 180 172 163 160 161 161 166 184 190 196 157 147 148 151 156 167 161 126 114 119 120 117 121
274 279 277 268 266 260 263 265 259 249 244 236 233 235 231 227 229 233 235 237 202 199 194 204 195 190 200 196 191 190 197 201 190 187 197 195 195 193 197 200 200 193 191 188 186 184 179 178 174 167 178 180 174 164 161 163 164 172 183 189 169 152 146 150 157 175 166 121 129 126 125 128 135 139
241 252 262 259 255 250 254 257 255 254 251 241 234 233 228 224 222 226 226 240 221 171 199 215 198 182 197 192 193 194 202 202 189 190 195 199 196 189 195 197 198 196 192 188 185 184 176 175 177 178 175 179 170 165 163 163 166 178 185 180 158 153 151 157 169 168 146 140 134 136 133 141 149 156
249 264 275 268 267 260 252 254 256 253 244 240 240 235 233 227 221 222 223 227 234 200 201 192 194 189 187 183 192 201 208 198 188 193 196 197 190 187 192 198 197 197 194 187 185 184 177 177 181 185 169 173 172 170 167 167 171 178 181 160 161 155 155 160 160 156 152 145 142 143 152 157 162 163
250 263 269 266 261 259 258 253 257 254 245 240 236 234 231 229 221 219 221 223 228 243 223 179 190 185 172 190 196 199 201 197 193 193 195 194 190 187 193 197 197 194 193 186 184 182 177 180 181 176 180 178 178 173 170 170 171 179 165 162 161 156 157 159 156 160 153 148 151 154 163 167 165 163
272 277 275 269 265 260 268 266 258 256 255 244 237 227 219 221 223 214 216 217 219 222 193 199 174 170 185 199 200 202 199 194 162 189 186 195 187 187 193 189 196 193 190 184 182 183 179 179 177 178 184 178 177 173 171 169 172 169 162 163 160 157 157 157 158 158 154 154 156 163 162 166 165 165
299 290 281 278 269 267 265 260 255 254 256 254 248 242 229 224 223 218 216 212 216 217 221 186 175 185 193 202 201 207 207 199 177 188 195 194 188 189 185 190 188 187 185 183 181 183 180 177 177 179 173 164 164 159 168 167 167 160 162 162 163 159 157 158 158 161 159 156 160 162 166 165 171 171
305 296 294 287 277 266 261 263 266 260 253 249 245 241 232 225 223 215 213 214 214 209 228 192 194 194 191 211 202 193 205 181 175 194 199 178 178 185 179 164 165 185 185 181 181 183 179 176 174 169 167 166 158 167 174 171 163 161 162 161 163 161 161 159 161 164 161 161 165 169 167 172 167 182
301 296 292 291 286 281 284 282 275 272 264 255 247 241 234 226 222 216 210 213 210 209 219 214 206 188 202 202 199 177 176 176 186 175 172 169 163 145 168 164 174 171 183 177 180 182 177 171 169 166 167 166 166 170 171 168 161 163 161 157 161 163 162 161 162 163 162 164 168 168 163 166 180 186
299 297 295 293 296 292 280 277 277 273 268 261 253 248 243 234 222 220 214 210 210 212 219 211 196 190 191 195 199 178 181 182 174 138 168 167 149 148 151 169 151 144 168 169 182 177 173 169 166 166 168 169 166 166 167 164 162 163 160 157 161 161 161 160 159 157 156 157 159 159 159 165 180 196
291 289 288 294 296 289 281 276 274 275 274 266 259 255 257 248 231 220 214 208 209 207 211 217 206 195 203 196 195 180 181 188 173 160 163 170 151 171 172 161 144 153 170 177 176 172 170 167 166 167 169 169 166 164 164 163 163 161 159 157 157 154 154 153 153 153 153 151 147 141 139 150 167 188
290 290 288 283 286 285 276 274 271 270 271 271 265 260 254 251 233 222 219 211 206 204 206 208 205 201 188 196 191 152 167 168 176 179 166 175 171 171 175 163 149 164 158 167 170 169 160 162 163 166 168 167 164 161 159 161 162 158 155 153 150 148 150 151 151 149 145 138 133 131 132 137 141 155
296 290 288 283 286 307 312 303 296 289 282 281 279 263 255 257 239 227 221 219 211 208 208 213 205 198 192 192 183 176 175 179 182 187 177 181 172 160 155 155 157 150 164 161 159 168 159 151 154 155 159 168 161 154 151 154 156 154 148 147 146 147 148 147 145 141 137 136 137 139 141 137 128 115
331 331 334 333 334 323 309 299 292 288 284 276 262 266 260 245 239 233 231 225 217 212 208 209 202 198 201 193 190 184 183 181 180 159 168 164 165 161 145 128 153 160 154 154 160 163 161 147 142 148 147 153 152 136 137 149 154 151 145 145 145 144 144 142 140 139 140 139 136 139 137 135 131 128
338 333 337 334 330 327 326 319 306 298 292 285 277 269 265 258 242 237 234 225 221 219 216 213 208 208 205 198 189 191 178 181 173 180 178 173 167 165 156 165 146 173 152 152 151 156 167 146 143 146 145 149 148 138 142 142 148 148 144 143 142 141 140 139 140 141 141 139 130 127 127 129 124 118
351 348 341 337 336 336 343 348 344 333 321 309 295 283 276 271 263 249 232 234 230 219 223 218 215 210 214 198 189 191 181 179 178 180 176 174 174 170 178 169 170 163 157 148 154 153 155 146 138 137 144 146 148 141 138 143 147 144 141 140 140 140 140 139 140 140 138 137 135 134 131 125 124 119
2 354 346 343 337 343 351 353 341 331 319 311 303 285 283 280 268 264 267 252 235 223 227 225 220 214 210 205 198 189 188 176 179 173 180 183 183 184 183 173 136 150 157 134 145 150 152 141 146 134 137 136 131 127 139 143 144 141 139 139 140 139 139 139 138 137 136 136 135 132 126 122 119 119
8 4 360 351 351 352 351 349 338 323 327 326 321 323 317 310 307 290 265 270 274 271 248 227 227 218 209 218 204 197 179 175 182 177 188 181 183 184 183 166 159 154 162 158 144 136 142 149 142 132 131 118 119 136 144 143 140 137 137 138 138 138 137 136 136 137 136 132 126 121 118 116 115 111
11 8 8 8 7 6 2 353 342 340 347 349 355 4 18 21 17 20 11 356 346 319 290 275 247 236 221 223 206 189 187 192 189 190 186 183 182 163 112 99 126 139 153 140 136 139 140 145 128 125 124 115 114 113 135 139 135 136 138 138 138 136 134 134 134 133 128 122 118 116 116 112 108 107
16 13 12 11 14 12 5 360 4 5 353 10 8 17 15 17 18 16 352 342 344 319 292 297 305 300 266 219 207 182 187 190 162 117 94 95 115 134 147 148 148 155 165 158 140 122 130 143 121 104 110 114 101 120 119 135 135 136 137 136 133 130 130 130 130 126 122 119 115 115 112 107 104 100
13 20 19 20 17 14 14 6 15 9 14 25 19 22 20 19 24 12 355 355 8 9 16 19 18 6 341 280 194 184 182 177 158 142 146 156 151 152 158 157 158 160 156 165 135 129 128 137 120 111 90 99 105 108 118 119 128 132 131 128 126 128 129 128 124 122 119 116 115 114 110 107 104 100
15 20 25 25 19 20 18 15 19 14 23 35 24 24 23 24 22 14 4 10 13 13 19 21 25 24 14 1 300 194 180 167 159 161 174 162 157 168 169 165 166 151 161 165 143 118 128 127 124 111 104 78 58 92 112 113 109 113 114 117 123 124 123 124 121 117 113 112 113 109 113 111 108 97
17 15 20 22 20 20 20 23 26 28 33 43 33 28 34 33 30 18 19 20 19 20 21 18 14 24 16 11 15 342 218 174 178 182 171 162 170 169 165 146 127 119 135 182 144 115 128 127 149 127 110 76 72 75 101 108 104 93 98 103 98 104 114 112 108 108 110 113 115 113 112 111 108 97
16 15 16 20 18 19 20 24 29 34 38 48 42 39 38 32 27 3 32 32 38 38 35 25 26 31 23 26 14 22 20 354 330 288 187 174 171 171 171 167 167 164 156 189 149 119 137 141 152 223 135 136 141 134 109 106 106 111 115 105 102 107 101 94 88 92 102 110 111 107 104 104 110 107
15 10 14 20 13 21 27 27 26 31 36 40 47 42 41 34 19 26 39 34 41 47 42 38 32 27 32 29 26 26 16 12 360 356 355 196 203 169 169 167 168 137 141 160 147 123 135 147 132 112 89 62 113 122 113 106 104 107 110 117 115 109 98 90 92 88 93 95 93 92 87 88 83 97
21 16 9 14 8 18 32 34 31 29 33 35 40 30 31 31 33 37 36 38 44 49 45 45 38 32 33 30 28 22 18 15 9 10 4 3 81 98 39 187 162 147 145 151 129 115 120 140 136 120 108 116 116 121 126 112 100 100 95 97 101 107 106 101 92 84 63 83 95 98 110 102 95 88
14 14 13 12 13 21 29 35 35 32 30 35 29 28 28 27 26 32 37 35 42 43 44 44 42 34 29 36 33 26 18 16 15 17 20 30 42 58 67 59 36 117 124 138 135 132 133 138 150 139 139 134 131 126 125 135 136 121 97 93 95 86 86 112 119 103 75 95 98 106 101 104 116 111
17 17 11 11 19 24 27 31 36 35 33 33 32 33 29 30 30 35 32 36 36 42 41 41 39 34 29 31 34 31 30 25 20 27 31 38 46 61 62 58 65 88 109 125 129 131 130 130 127 132 141 142 140 144 137 77 105 123 118 89 77 72 79 108 111 101 87 91 96 100 104 89 72 90
21 19 19 23 27 26 26 30 35 33 27 26 32 33 32 33 36 32 36 33 38 40 35 34 30 30 28 27 26 20 30 42 35 33 31 34 47 66 71 65 62 61 71 71 88 112 127 128 128 124 120 127 121 112 114 119 123 112 114 118 118 82 71 89 122 125 114 82 105 89 92 121 119 118
18 20 21 24 25 28 26 32 32 32 23 23 27 30 32 36 34 32 34 33 39 39 36 33 30 23 16 19 22 31 34 38 38 38 37 37 33 39 71 73 60 53 49 57 65 78 97 113 123 124 116 113 119 122 128 125 119 118 128 134 130 70 44 91 105 109 116 95 76 81 52 72 112 127
14 16 20 26 25 27 30 33 33 32 24 25 23 24 28 32 31 35 37 38 39 37 35 33 30 24 18 25 32 31 32 36 30 28 48 52 38 39 59 75 66 64 53 53 56 64 82 90 103 119 114 110 106 117 122 117 125 137 145 150 149 142 153 84 81 91 90 96 85 74 55 76 80 61
6 16 22 25 22 22 25 21 21 20 23 27 24 19 18 20 18 21 30 39 44 42 37 39 34 30 31 36 30 34 38 36 30 27 41 51 52 31 55 70 59 64 63 55 54 52 60 69 88 98 111 122 124 126 121 130 141 147 140 130 91 74 90 116 100 84 102 113 81 54 48 43 71 57
24 30 30 22 23 22 21 20 18 14 16 18 22 25 18 16 15 21 25 31 30 22 29 37 34 35 36 39 34 37 41 36 33 27 41 38 58 52 59 66 60 57 67 65 62 58 62 62 60 71 75 82 113 122 120 113 103 116 124 106 99 84 64 78 130 137 137 75 75 97 71 45 41 63
41 34 36 28 25 21 21 21 18 15 16 14 14 14 19 19 19 20 21 25 18 20 32 29 34 37 40 43 38 44 49 46 42 36 43 44 47 58 58 66 60 57 61 68 66 70 71 73 77 73 76 70 56 67 107 125 116 110 99 108 110 110 49 89 72 106 127 123 132 102 88 73 60 61
39 30 34 24 23 20 24 24 17 13 16 10 13 10 11 21 17 20 23 10 11 25 29 31 38 40 42 43 37 47 43 48 47 49 48 54 54 61 64 70 67 62 64 66 68 69 76 77 79 79 74 73 69 51 34 48 120 101 94 88 109 118 103 44 110 89 112 103 112 107 99 84 79 57
37 29 31 27 19 15 24 12 14 18 19 15 16 3 10 11 14 14 16 357 21 21 27 32 32 35 44 46 42 42 43 46 48 50 54 58 64 64 63 65 70 71 73 76 79 72 81 89 95 97 95 91 95 87 41 13 36 133 124 122 107 104 99 104 65 85 94 94 102 132 125 123 111 96
38 25 29 27 20 19 15 7 7 13 13 12 13 17 16 10 0 11 3 15 36 26 25 36 34 26 31 52 54 45 41 46 53 47 60 63 68 74 78 73 70 70 69 60 69 90 90 87 85 93 100 100 99 103 81 317 29 30 126 124 87 113 137 127 113 82 24 53 98 61 117 128 125 115
32 24 23 22 15 9 16 10 8 13 7 7 9 15 19 16 10 10 7 28 22 27 28 34 27 26 29 40 67 60 52 48 52 53 50 60 73 72 78 85 78 74 75 64 62 77 104 111 113 114 112 114 119 114 116 39 76 18 3 138 138 159 136 122 106 110 77 25 80 64 85 101 104 112
34 26 16 11 7 4 13 9 11 10 4 8 13 11 8 14 13 14 18 19 19 24 26 30 28 27 32 25 32 44 53 49 52 51 57 53 69 85 88 91 87 76 81 71 62 65 81 99 115 125 128 138 151 161 149 142 126 140 23 47 133 132 171 128 112 97 111 105 78 73 53 34 88 81
20 37 22 6 2 356 5 7 16 16 17 11 16 13 18 18 16 15 15 12 14 20 31 28 16 25 34 22 36 60 50 50 50 51 51 49 36 60 72 69 90 97 89 86 83 70 79 74 71 75 82 77 88 93 107 96 93 71 77 42 14 100 150 135 117 127 92 79 106 104 105 114 94 358
8 22 11 6 6 8 0 9 8 14 20 10 14 18 26 25 26 15 16 13 16 20 22 18 27 35 27 23 26 52 60 44 46 43 50 59 53 47 52 73 58 54 87 67 78 82 77 68 32 121 112 112 116 112 98 100 103 115 99 54 25 36 45 32 137 144 125 135 111 112 117 111 117 14
3 14 11 11 11 2 8 11 6 13 19 15 16 14 18 26 28 18 20 19 23 23 22 23 19 35 35 25 38 52 62 50 45 44 39 54 68 55 50 56 75 60 78 77 67 62 9 34 90 104 113 120 128 123 129 135 141 140 139 58 52 26 50 63 57 66 140 151 142 118 103 91 79 138
12 8 15 358 9 16 20 16 14 18 16 18 21 11 20 22 20 18 12 14 9 18 13 19 16 24 32 39 42 44 61 55 48 53 47 41 53 68 59 53 64 72 85 89 71 59 53 64 76 94 83 77 60 99 136 134 120 124 130 129 107 55 49 34 67 83 82 62 54 87 174 157 138 188
8 12 5 8 17 18 14 21 19 23 30 32 27 27 28 26 25 16 19 14 12 8 358 22 16 17 11 20 54 54 42 42 42 53 60 56 57 64 78 71 68 76 81 89 83 67 71 74 51 56 95 63 64 111 119 119 130 133 127 93 66 114 99 81 69 77 72 53 30 7 314 191 157 212
359 4 11 5 15 20 21 12 31 25 35 34 35 35 31 31 26 22 22 18 12 8 14 13 17 17 12 13 37 49 38 43 58 57 58 62 60 70 71 72 67 61 57 55 96 84 73 75 70 60 60 49 40 109 128 131 130 141 138 132 121 105 104 140 140 138 115 77 11 356 281 163 110 98